QPF
0.00 0.00 0.00 0.00 0.00 0.00 0.00 0.00 0.00 0.00 0.00 0.00 0.00 0.00 0.00 0.00 0.01 0.01 0.03 0.03 0.04 0.04 0.03 0.03 0.05 0.06 0.06 0.08 0.09 0.06 0.06 0.06 0.06 0.06 0.06 0.06 0.06 0.07 0.08 0.08 0.09 0.10 0.09 0.09
0.00 0.00 0.00 0.00 0.00 0.00 0.01 0.00 0.00 0.00 0.00 0.00 0.01 0.01 0.00 0.01 0.01 0.02 0.02 0.03 0.04 0.04 0.04 0.06 0.07 0.07 0.07 0.07 0.08 0.05 0.04 0.04 0.06 0.07 0.06 0.05 0.06 0.08 0.08 0.10 0.12 0.11 0.11 0.11
0.00 0.00 0.00 0.00 0.01 0.00 0.01 0.01 0.01 0.01 0.00 0.01 0.01 0.01 0.01 0.01 0.01 0.01 0.02 0.02 0.03 0.04 0.05 0.06 0.07 0.06 0.06 0.06 0.07 0.05 0.03 0.03 0.03 0.05 0.04 0.03 0.04 0.06 0.08 0.08 0.08 0.07 0.07 0.06
0.00 0.00 0.00 0.01 0.00 0.01 0.01 0.01 0.01 0.01 0.01 0.01 0.01 0.01 0.01 0.01 0.01 0.01 0.02 0.02 0.02 0.03 0.03 0.04 0.04 0.04 0.05 0.06 0.05 0.04 0.03 0.02 0.02 0.03 0.05 0.03 0.02 0.04 0.06 0.06 0.06 0.05 0.05 0.05
0.01 0.00 0.00 0.00 0.00 0.00 0.01 0.01 0.01 0.00 0.00 0.01 0.01 0.01 0.01 0.01 0.02 0.02 0.02 0.02 0.03 0.02 0.02 0.03 0.03 0.03 0.04 0.04 0.04 0.03 0.02 0.02 0.02 0.04 0.08 0.06 0.03 0.05 0.09 0.09 0.07 0.05 0.05 0.05
0.01 0.01 0.00 0.00 0.00 0.00 0.01 0.01 0.01 0.00 0.01 0.02 0.01 0.01 0.01 0.01 0.01 0.02 0.02 0.02 0.03 0.03 0.03 0.03 0.03 0.03 0.04 0.03 0.03 0.02 0.01 0.01 0.01 0.01 0.04 0.08 0.06 0.06 0.08 0.09 0.08 0.08 0.06 0.05
0.01 0.01 0.01 0.00 0.01 0.02 0.01 0.01 0.01 0.01 0.02 0.02 0.03 0.02 0.02 0.02 0.02 0.03 0.03 0.02 0.03 0.04 0.04 0.03 0.02 0.02 0.04 0.04 0.03 0.03 0.02 0.01 0.01 0.01 0.02 0.04 0.07 0.06 0.06 0.07 0.09 0.10 0.08 0.06
0.02 0.02 0.01 0.00 0.01 0.02 0.03 0.02 0.02 0.02 0.02 0.02 0.02 0.02 0.02 0.02 0.02 0.04 0.04 0.04 0.04 0.05 0.06 0.04 0.03 0.03 0.04 0.03 0.04 0.04 0.02 0.01 0.01 0.02 0.02 0.03 0.05 0.05 0.04 0.05 0.06 0.07 0.09 0.10
0.02 0.02 0.02 0.02 0.02 0.02 0.03 0.04 0.04 0.04 0.04 0.03 0.02 0.01 0.02 0.02 0.02 0.03 0.04 0.05 0.04 0.04 0.04 0.03 0.03 0.03 0.03 0.03 0.04 0.04 0.03 0.01 0.01 0.02 0.02 0.03 0.03 0.04 0.04 0.04 0.04 0.05 0.05 0.08
0.01 0.02 0.02 0.03 0.06 0.03 0.03 0.03 0.03 0.04 0.05 0.04 0.03 0.02 0.02 0.02 0.04 0.06 0.05 0.05 0.04 0.03 0.02 0.02 0.03 0.03 0.05 0.05 0.04 0.04 0.03 0.02 0.01 0.02 0.03 0.03 0.03 0.04 0.04 0.04 0.04 0.04 0.03 0.05
0.01 0.01 0.02 0.07 0.10 0.07 0.05 0.03 0.02 0.03 0.03 0.04 0.04 0.04 0.03 0.03 0.03 0.05 0.05 0.04 0.04 0.03 0.03 0.02 0.02 0.03 0.05 0.05 0.04 0.04 0.03 0.03 0.03 0.03 0.02 0.02 0.02 0.03 0.04 0.04 0.04 0.03 0.03 0.02
0.02 0.01 0.02 0.07 0.11 0.06 0.04 0.03 0.02 0.02 0.02 0.02 0.02 0.03 0.03 0.03 0.03 0.04 0.05 0.03 0.03 0.03 0.03 0.03 0.03 0.03 0.03 0.04 0.04 0.03 0.03 0.03 0.04 0.04 0.03 0.02 0.02 0.03 0.04 0.05 0.05 0.03 0.03 0.02
0.01 0.01 0.01 0.03 0.04 0.02 0.02 0.02 0.02 0.02 0.02 0.02 0.02 0.02 0.02 0.02 0.02 0.02 0.02 0.02 0.01 0.01 0.02 0.02 0.02 0.02 0.02 0.03 0.03 0.04 0.03 0.03 0.03 0.03 0.02 0.02 0.02 0.02 0.03 0.03 0.04 0.04 0.04 0.04
0.01 0.01 0.01 0.01 0.01 0.01 0.01 0.02 0.02 0.02 0.03 0.03 0.03 0.02 0.02 0.02 0.02 0.02 0.01 0.01 0.01 0.01 0.01 0.01 0.01 0.02 0.02 0.03 0.04 0.04 0.03 0.04 0.04 0.03 0.03 0.03 0.03 0.02 0.03 0.03 0.03 0.03 0.03 0.02
0.01 0.01 0.01 0.01 0.01 0.01 0.01 0.02 0.02 0.02 0.02 0.03 0.03 0.03 0.03 0.03 0.03 0.02 0.01 0.01 0.01 0.01 0.01 0.01 0.02 0.02 0.02 0.02 0.03 0.03 0.02 0.02 0.03 0.03 0.03 0.05 0.04 0.02 0.02 0.03 0.03 0.02 0.02 0.02
0.01 0.01 0.01 0.01 0.01 0.02 0.01 0.02 0.03 0.03 0.03 0.03 0.03 0.04 0.05 0.06 0.05 0.03 0.02 0.02 0.02 0.01 0.01 0.01 0.01 0.02 0.02 0.02 0.02 0.02 0.02 0.02 0.02 0.03 0.03 0.05 0.05 0.04 0.03 0.04 0.03 0.03 0.02 0.02
0.01 0.01 0.01 0.01 0.01 0.02 0.02 0.02 0.03 0.04 0.04 0.03 0.03 0.03 0.05 0.08 0.07 0.05 0.04 0.03 0.02 0.01 0.01 0.01 0.02 0.02 0.02 0.02 0.02 0.02 0.02 0.03 0.03 0.02 0.03 0.04 0.05 0.05 0.05 0.04 0.04 0.04 0.03 0.04
0.01 0.01 0.01 0.01 0.01 0.02 0.03 0.03 0.03 0.03 0.03 0.04 0.03 0.03 0.03 0.06 0.07 0.05 0.05 0.04 0.03 0.02 0.01 0.01 0.02 0.02 0.02 0.02 0.02 0.02 0.03 0.03 0.02 0.02 0.02 0.02 0.03 0.04 0.06 0.05 0.06 0.06 0.05 0.05
0.01 0.01 0.01 0.01 0.01 0.02 0.03 0.04 0.04 0.03 0.03 0.03 0.02 0.02 0.02 0.02 0.02 0.02 0.03 0.04 0.04 0.03 0.02 0.01 0.02 0.02 0.02 0.03 0.03 0.02 0.03 0.04 0.03 0.03 0.04 0.03 0.03 0.04 0.06 0.06 0.07 0.09 0.08 0.06
0.02 0.02 0.02 0.02 0.02 0.03 0.04 0.05 0.04 0.04 0.03 0.02 0.02 0.01 0.01 0.01 0.01 0.01 0.02 0.03 0.04 0.04 0.03 0.02 0.01 0.01 0.02 0.04 0.04 0.04 0.04 0.03 0.04 0.04 0.05 0.06 0.05 0.04 0.06 0.06 0.06 0.07 0.09 0.08
0.04 0.03 0.02 0.02 0.02 0.03 0.05 0.06 0.06 0.06 0.05 0.04 0.03 0.02 0.01 0.01 0.01 0.01 0.02 0.02 0.02 0.03 0.03 0.02 0.01 0.01 0.02 0.04 0.04 0.05 0.04 0.04 0.03 0.03 0.04 0.04 0.04 0.03 0.04 0.04 0.04 0.04 0.05 0.04
0.06 0.06 0.04 0.03 0.03 0.03 0.04 0.05 0.07 0.08 0.05 0.04 0.03 0.03 0.02 0.02 0.01 0.01 0.01 0.01 0.01 0.02 0.02 0.02 0.02 0.03 0.03 0.03 0.03 0.03 0.03 0.04 0.03 0.03 0.04 0.04 0.03 0.03 0.03 0.03 0.03 0.03 0.03 0.03
0.03 0.04 0.04 0.03 0.02 0.02 0.02 0.03 0.04 0.07 0.04 0.02 0.02 0.02 0.02 0.02 0.02 0.01 0.01 0.01 0.01 0.01 0.01 0.02 0.02 0.03 0.03 0.04 0.04 0.03 0.03 0.03 0.03 0.03 0.03 0.03 0.03 0.02 0.01 0.01 0.01 0.01 0.02 0.02
0.01 0.01 0.01 0.01 0.01 0.01 0.02 0.02 0.03 0.04 0.03 0.01 0.01 0.01 0.01 0.02 0.02 0.02 0.02 0.01 0.01 0.01 0.01 0.02 0.02 0.02 0.02 0.04 0.05 0.03 0.03 0.04 0.04 0.04 0.03 0.03 0.02 0.01 0.01 0.01 0.01 0.01 0.01 0.01
0.00 0.00 0.01 0.01 0.01 0.02 0.02 0.02 0.02 0.02 0.02 0.01 0.01 0.01 0.01 0.01 0.01 0.01 0.01 0.01 0.01 0.01 0.01 0.01 0.02 0.02 0.02 0.02 0.02 0.03 0.02 0.03 0.04 0.04 0.03 0.02 0.02 0.01 0.01 0.01 0.01 0.01 0.01 0.02
0.00 0.00 0.01 0.02 0.02 0.02 0.02 0.02 0.01 0.01 0.01 0.01 0.01 0.01 0.01 0.01 0.01 0.01 0.01 0.01 0.01 0.01 0.01 0.01 0.01 0.01 0.01 0.02 0.02 0.02 0.02 0.03 0.04 0.04 0.03 0.02 0.01 0.01 0.01 0.01 0.01 0.01 0.01 0.02
0.00 0.01 0.01 0.01 0.02 0.02 0.02 0.01 0.01 0.01 0.01 0.02 0.02 0.01 0.01 0.01 0.01 0.01 0.01 0.01 0.01 0.01 0.01 0.02 0.03 0.02 0.02 0.02 0.02 0.03 0.03 0.04 0.04 0.03 0.03 0.03 0.03 0.02 0.02 0.01 0.01 0.01 0.01 0.02
MSLP
1017.79 1018.19 1018.53 1018.82 1019.06 1019.28 1019.50 1019.72 1019.96 1020.22 1020.50 1020.79 1021.07 1021.33 1021.55 1021.70 1021.77 1021.75 1021.62 1021.39 1021.06 1020.65 1020.18 1019.66 1019.13 1018.60 1018.08 1017.57 1017.07 1016.57 1016.03 1015.45 1014.80 1014.07 1013.26 1012.37 1011.44 1010.49 1009.57 1008.73 1008.01 1007.46 1007.11 1006.98
1018.23 1018.60 1018.87 1019.07 1019.21 1019.33 1019.45 1019.59 1019.78 1020.00 1020.27 1020.57 1020.87 1021.15 1021.39 1021.55 1021.61 1021.57 1021.42 1021.17 1020.81 1020.38 1019.90 1019.39 1018.86 1018.34 1017.82 1017.32 1016.83 1016.32 1015.79 1015.22 1014.59 1013.89 1013.11 1012.25 1011.34 1010.41 1009.48 1008.60 1007.82 1007.18 1006.72 1006.47
1018.61 1018.91 1019.11 1019.22 1019.27 1019.31 1019.36 1019.45 1019.61 1019.83 1020.11 1020.43 1020.76 1021.06 1021.31 1021.46 1021.52 1021.45 1021.27 1020.99 1020.61 1020.16 1019.67 1019.16 1018.64 1018.12 1017.60 1017.10 1016.59 1016.07 1015.52 1014.93 1014.29 1013.59 1012.83 1011.99 1011.11 1010.20 1009.28 1008.39 1007.58 1006.89 1006.35 1006.00
1018.91 1019.13 1019.25 1019.28 1019.27 1019.25 1019.26 1019.34 1019.49 1019.72 1020.03 1020.37 1020.72 1021.04 1021.28 1021.42 1021.45 1021.35 1021.14 1020.82 1020.42 1019.97 1019.47 1018.96 1018.44 1017.92 1017.40 1016.88 1016.34 1015.78 1015.19 1014.56 1013.89 1013.17 1012.40 1011.58 1010.72 1009.84 1008.95 1008.09 1007.28 1006.56 1005.98 1005.56
1019.10 1019.25 1019.29 1019.26 1019.20 1019.16 1019.16 1019.24 1019.41 1019.67 1020.00 1020.36 1020.72 1021.03 1021.25 1021.37 1021.36 1021.23 1020.98 1020.63 1020.21 1019.75 1019.25 1018.75 1018.24 1017.71 1017.18 1016.63 1016.04 1015.43 1014.78 1014.10 1013.37 1012.62 1011.84 1011.03 1010.20 1009.36 1008.52 1007.71 1006.93 1006.22 1005.62 1005.15
1019.14 1019.22 1019.21 1019.15 1019.08 1019.03 1019.04 1019.15 1019.34 1019.63 1019.97 1020.34 1020.69 1020.98 1021.18 1021.25 1021.20 1021.02 1020.74 1020.37 1019.94 1019.47 1018.98 1018.49 1017.98 1017.45 1016.90 1016.32 1015.69 1015.02 1014.30 1013.55 1012.78 1011.99 1011.20 1010.40 1009.61 1008.83 1008.05 1007.29 1006.57 1005.89 1005.29 1004.79
1019.01 1019.04 1019.01 1018.94 1018.87 1018.84 1018.89 1019.03 1019.26 1019.56 1019.91 1020.28 1020.61 1020.86 1021.01 1021.04 1020.94 1020.72 1020.41 1020.02 1019.58 1019.12 1018.65 1018.16 1017.66 1017.13 1016.56 1015.95 1015.27 1014.55 1013.78 1012.97 1012.16 1011.35 1010.55 1009.78 1009.04 1008.31 1007.61 1006.92 1006.25 1005.62 1005.03 1004.51
1018.69 1018.70 1018.66 1018.61 1018.58 1018.60 1018.69 1018.87 1019.13 1019.45 1019.80 1020.15 1020.44 1020.65 1020.75 1020.73 1020.59 1020.34 1020.01 1019.61 1019.18 1018.73 1018.27 1017.79 1017.30 1016.77 1016.19 1015.54 1014.84 1014.07 1013.26 1012.42 1011.59 1010.77 1010.00 1009.26 1008.57 1007.92 1007.29 1006.67 1006.06 1005.46 1004.88 1004.33
1018.18 1018.20 1018.19 1018.18 1018.20 1018.29 1018.44 1018.66 1018.95 1019.29 1019.63 1019.95 1020.21 1020.38 1020.44 1020.38 1020.21 1019.94 1019.60 1019.21 1018.79 1018.35 1017.91 1017.44 1016.95 1016.42 1015.83 1015.17 1014.44 1013.65 1012.82 1011.98 1011.15 1010.36 1009.61 1008.93 1008.31 1007.72 1007.16 1006.61 1006.04 1005.47 1004.88 1004.30
1017.52 1017.56 1017.60 1017.66 1017.76 1017.92 1018.14 1018.41 1018.74 1019.09 1019.43 1019.73 1019.96 1020.10 1020.13 1020.05 1019.86 1019.59 1019.26 1018.88 1018.48 1018.06 1017.63 1017.18 1016.69 1016.15 1015.55 1014.88 1014.15 1013.36 1012.54 1011.72 1010.92 1010.17 1009.48 1008.86 1008.30 1007.78 1007.28 1006.78 1006.25 1005.68 1005.08 1004.46
1016.74 1016.83 1016.95 1017.09 1017.28 1017.52 1017.82 1018.15 1018.51 1018.88 1019.22 1019.51 1019.73 1019.85 1019.86 1019.78 1019.60 1019.35 1019.04 1018.68 1018.31 1017.91 1017.49 1017.05 1016.56 1016.02 1015.42 1014.75 1014.02 1013.25 1012.46 1011.68 1010.94 1010.25 1009.62 1009.08 1008.58 1008.12 1007.67 1007.20 1006.68 1006.12 1005.49 1004.83
1015.90 1016.06 1016.26 1016.50 1016.79 1017.12 1017.50 1017.89 1018.29 1018.68 1019.04 1019.33 1019.54 1019.66 1019.68 1019.62 1019.46 1019.24 1018.97 1018.65 1018.30 1017.93 1017.52 1017.08 1016.60 1016.06 1015.46 1014.80 1014.09 1013.36 1012.62 1011.89 1011.22 1010.60 1010.05 1009.57 1009.14 1008.73 1008.31 1007.87 1007.36 1006.78 1006.14 1005.44
1015.05 1015.29 1015.59 1015.93 1016.32 1016.75 1017.20 1017.66 1018.10 1018.52 1018.89 1019.19 1019.41 1019.54 1019.59 1019.55 1019.44 1019.26 1019.03 1018.75 1018.43 1018.08 1017.69 1017.26 1016.77 1016.24 1015.65 1015.01 1014.34 1013.65 1012.97 1012.33 1011.73 1011.19 1010.72 1010.30 1009.92 1009.55 1009.17 1008.74 1008.24 1007.66 1007.01 1006.31
1014.24 1014.56 1014.95 1015.40 1015.90 1016.41 1016.94 1017.45 1017.94 1018.39 1018.77 1019.09 1019.32 1019.48 1019.55 1019.55 1019.48 1019.35 1019.16 1018.92 1018.64 1018.31 1017.94 1017.52 1017.04 1016.52 1015.95 1015.35 1014.72 1014.10 1013.49 1012.93 1012.41 1011.95 1011.55 1011.20 1010.87 1010.54 1010.18 1009.77 1009.28 1008.72 1008.09 1007.41
1013.48 1013.89 1014.38 1014.93 1015.52 1016.12 1016.71 1017.28 1017.80 1018.27 1018.67 1019.00 1019.25 1019.42 1019.53 1019.56 1019.53 1019.44 1019.30 1019.10 1018.85 1018.55 1018.20 1017.80 1017.34 1016.85 1016.31 1015.76 1015.19 1014.64 1014.12 1013.63 1013.20 1012.82 1012.49 1012.20 1011.91 1011.62 1011.29 1010.90 1010.45 1009.93 1009.34 1008.71
1012.81 1013.31 1013.89 1014.53 1015.19 1015.86 1016.51 1017.12 1017.66 1018.14 1018.55 1018.89 1019.15 1019.34 1019.47 1019.53 1019.54 1019.49 1019.38 1019.22 1019.01 1018.74 1018.41 1018.04 1017.62 1017.16 1016.68 1016.18 1015.69 1015.22 1014.78 1014.39 1014.04 1013.73 1013.47 1013.23 1012.99 1012.73 1012.44 1012.09 1011.69 1011.23 1010.72 1010.18
1012.22 1012.80 1013.47 1014.18 1014.92 1015.64 1016.32 1016.95 1017.51 1018.00 1018.41 1018.75 1019.01 1019.21 1019.35 1019.44 1019.47 1019.45 1019.38 1019.25 1019.07 1018.83 1018.55 1018.21 1017.84 1017.44 1017.02 1016.59 1016.18 1015.80 1015.45 1015.13 1014.86 1014.63 1014.43 1014.23 1014.04 1013.82 1013.57 1013.28 1012.94 1012.56 1012.15 1011.72
1011.73 1012.38 1013.12 1013.89 1014.68 1015.43 1016.14 1016.78 1017.34 1017.83 1018.23 1018.56 1018.83 1019.03 1019.18 1019.28 1019.34 1019.34 1019.30 1019.20 1019.06 1018.86 1018.61 1018.32 1018.00 1017.66 1017.32 1016.97 1016.64 1016.34 1016.07 1015.84 1015.64 1015.47 1015.32 1015.17 1015.02 1014.85 1014.65 1014.41 1014.15 1013.86 1013.56 1013.25
1011.33 1012.05 1012.84 1013.65 1014.46 1015.23 1015.94 1016.58 1017.14 1017.62 1018.02 1018.34 1018.61 1018.82 1018.98 1019.09 1019.17 1019.19 1019.18 1019.11 1019.00 1018.84 1018.64 1018.40 1018.14 1017.86 1017.58 1017.31 1017.06 1016.84 1016.64 1016.48 1016.34 1016.22 1016.11 1016.00 1015.88 1015.75 1015.60 1015.43 1015.24 1015.04 1014.85 1014.66
1011.03 1011.80 1012.61 1013.44 1014.26 1015.03 1015.73 1016.36 1016.91 1017.38 1017.77 1018.10 1018.37 1018.59 1018.77 1018.90 1019.00 1019.05 1019.06 1019.02 1018.94 1018.82 1018.66 1018.48 1018.27 1018.05 1017.83 1017.63 1017.44 1017.28 1017.14 1017.02 1016.93 1016.84 1016.76 1016.69 1016.60 1016.50 1016.40 1016.28 1016.16 1016.05 1015.95 1015.87
1010.83 1011.61 1012.43 1013.26 1014.06 1014.81 1015.49 1016.11 1016.64 1017.11 1017.51 1017.84 1018.13 1018.37 1018.57 1018.73 1018.85 1018.93 1018.97 1018.97 1018.92 1018.83 1018.71 1018.57 1018.40 1018.23 1018.07 1017.91 1017.77 1017.65 1017.55 1017.47 1017.40 1017.33 1017.27 1017.21 1017.15 1017.08 1017.01 1016.94 1016.88 1016.84 1016.81 1016.81
1010.70 1011.48 1012.28 1013.08 1013.84 1014.56 1015.22 1015.81 1016.34 1016.80 1017.21 1017.57 1017.88 1018.15 1018.38 1018.58 1018.73 1018.85 1018.91 1018.94 1018.92 1018.87 1018.78 1018.67 1018.54 1018.40 1018.27 1018.14 1018.03 1017.94 1017.86 1017.79 1017.73 1017.68 1017.63 1017.58 1017.53 1017.48 1017.44 1017.40 1017.39 1017.39 1017.42 1017.47
1010.63 1011.38 1012.14 1012.89 1013.61 1014.28 1014.91 1015.48 1015.99 1016.46 1016.88 1017.26 1017.61 1017.91 1018.18 1018.42 1018.61 1018.75 1018.85 1018.91 1018.92 1018.89 1018.82 1018.73 1018.63 1018.52 1018.40 1018.30 1018.21 1018.12 1018.05 1017.99 1017.93 1017.88 1017.83 1017.78 1017.74 1017.71 1017.68 1017.68 1017.69 1017.73 1017.79 1017.88
1010.58 1011.28 1011.99 1012.68 1013.34 1013.96 1014.54 1015.09 1015.59 1016.06 1016.50 1016.91 1017.28 1017.63 1017.94 1018.21 1018.43 1018.61 1018.74 1018.82 1018.85 1018.84 1018.79 1018.72 1018.63 1018.54 1018.44 1018.35 1018.26 1018.18 1018.12 1018.05 1018.00 1017.95 1017.90 1017.85 1017.82 1017.79 1017.78 1017.79 1017.83 1017.89 1017.97 1018.07
1010.50 1011.15 1011.80 1012.42 1013.02 1013.59 1014.13 1014.65 1015.14 1015.61 1016.06 1016.49 1016.89 1017.27 1017.61 1017.91 1018.16 1018.36 1018.51 1018.61 1018.66 1018.66 1018.64 1018.58 1018.51 1018.43 1018.34 1018.26 1018.19 1018.12 1018.05 1018.00 1017.95 1017.90 1017.85 1017.82 1017.79 1017.77 1017.77 1017.79 1017.84 1017.91 1018.00 1018.11
1010.35 1010.95 1011.54 1012.10 1012.65 1013.17 1013.68 1014.17 1014.65 1015.11 1015.57 1016.01 1016.42 1016.82 1017.17 1017.49 1017.76 1017.98 1018.15 1018.26 1018.32 1018.34 1018.33 1018.29 1018.24 1018.17 1018.11 1018.04 1017.98 1017.93 1017.88 1017.83 1017.79 1017.76 1017.72 1017.69 1017.68 1017.67 1017.68 1017.71 1017.76 1017.83 1017.92 1018.02
1010.10 1010.66 1011.19 1011.71 1012.22 1012.70 1013.18 1013.65 1014.11 1014.57 1015.02 1015.46 1015.88 1016.28 1016.65 1016.97 1017.24 1017.47 1017.64 1017.76 1017.84 1017.88 1017.88 1017.86 1017.83 1017.79 1017.74 1017.70 1017.67 1017.63 1017.61 1017.58 1017.56 1017.53 1017.51 1017.50 1017.49 1017.49 1017.51 1017.54 1017.59 1017.65 1017.73 1017.83
Thickness
5670 5677 5680 5680 5680 5679 5675 5670 5666 5673 5678 5690 5696 5700 5704 5708 5711 5714 5716 5718 5719 5720 5721 5721 5721 5720 5719 5718 5717 5716 5714 5712 5711 5710 5709 5708 5706 5704 5702 5701 5700 5699 5698 5697
5662 5670 5671 5672 5676 5676 5675 5674 5673 5675 5678 5691 5694 5697 5700 5702 5704 5706 5708 5711 5713 5713 5714 5713 5713 5712 5712 5711 5709 5709 5707 5706 5706 5704 5703 5702 5700 5699 5698 5696 5695 5695 5693 5692
5644 5655 5661 5656 5667 5670 5672 5675 5673 5670 5678 5685 5687 5690 5693 5696 5698 5699 5702 5703 5705 5706 5706 5706 5706 5706 5704 5703 5702 5701 5699 5699 5698 5697 5697 5696 5695 5694 5692 5691 5690 5689 5688 5687
5632 5643 5638 5654 5670 5671 5669 5669 5671 5673 5677 5679 5682 5685 5689 5692 5692 5693 5695 5696 5697 5698 5698 5698 5698 5697 5697 5695 5693 5692 5690 5690 5690 5690 5689 5689 5689 5688 5686 5685 5683 5682 5682 5681
5621 5625 5635 5652 5661 5662 5659 5660 5667 5668 5671 5674 5676 5679 5680 5686 5688 5688 5690 5690 5691 5690 5690 5689 5688 5688 5688 5686 5685 5684 5683 5683 5683 5683 5682 5683 5682 5681 5680 5678 5677 5676 5676 5675
5618 5623 5625 5643 5658 5662 5656 5650 5663 5663 5663 5665 5667 5662 5669 5678 5680 5682 5683 5683 5683 5683 5683 5681 5680 5679 5678 5677 5676 5676 5677 5677 5676 5676 5676 5675 5674 5674 5673 5672 5670 5670 5669 5668
5615 5619 5629 5645 5652 5655 5639 5645 5657 5658 5658 5658 5659 5662 5667 5670 5672 5673 5674 5675 5676 5675 5674 5673 5673 5671 5669 5668 5668 5670 5670 5670 5669 5669 5669 5669 5667 5666 5665 5664 5662 5661 5660 5659
5609 5613 5622 5643 5644 5639 5640 5647 5650 5652 5654 5655 5656 5658 5661 5663 5665 5666 5666 5666 5666 5666 5665 5665 5664 5663 5662 5661 5662 5662 5662 5661 5661 5661 5662 5662 5660 5658 5657 5656 5654 5653 5651 5651
5616 5620 5629 5634 5637 5639 5639 5640 5643 5645 5649 5650 5650 5651 5653 5655 5657 5658 5659 5659 5658 5658 5657 5656 5657 5656 5654 5655 5655 5654 5653 5652 5652 5653 5653 5653 5652 5650 5649 5648 5646 5644 5643 5643
5614 5621 5626 5630 5632 5634 5636 5637 5640 5642 5643 5644 5644 5645 5646 5647 5648 5650 5651 5651 5650 5650 5650 5649 5650 5650 5649 5648 5648 5647 5645 5645 5644 5644 5644 5644 5643 5642 5641 5640 5639 5637 5636 5636
5610 5618 5622 5628 5628 5630 5631 5633 5635 5637 5639 5639 5639 5639 5639 5639 5639 5641 5642 5643 5642 5642 5642 5643 5643 5643 5643 5642 5640 5639 5638 5638 5637 5637 5637 5636 5635 5634 5633 5633 5633 5631 5630 5630
5609 5616 5615 5619 5624 5626 5625 5627 5629 5630 5632 5633 5634 5633 5633 5632 5632 5632 5633 5634 5634 5635 5636 5636 5636 5636 5636 5635 5634 5632 5631 5630 5629 5628 5627 5627 5626 5625 5625 5625 5625 5625 5624 5623
5616 5618 5616 5619 5620 5621 5621 5622 5624 5625 5625 5625 5627 5627 5626 5625 5625 5626 5626 5626 5627 5627 5629 5629 5629 5629 5630 5629 5627 5625 5624 5622 5622 5621 5620 5620 5619 5618 5617 5617 5616 5616 5615 5615
5613 5613 5612 5614 5615 5616 5617 5618 5619 5619 5620 5620 5620 5620 5620 5619 5619 5619 5619 5620 5622 5622 5622 5622 5623 5623 5623 5622 5620 5619 5617 5616 5615 5614 5613 5613 5612 5611 5610 5609 5608 5608 5607 5607
5609 5610 5610 5610 5610 5610 5611 5611 5611 5611 5612 5613 5613 5614 5613 5612 5612 5612 5614 5615 5616 5616 5615 5615 5615 5615 5616 5615 5614 5612 5611 5609 5608 5607 5606 5606 5605 5604 5602 5602 5601 5601 5600 5600
5605 5605 5605 5605 5605 5605 5605 5605 5604 5604 5605 5605 5606 5607 5607 5607 5606 5605 5606 5607 5607 5607 5608 5608 5607 5608 5608 5608 5607 5605 5604 5604 5603 5601 5600 5598 5598 5596 5595 5594 5593 5593 5593 5592
5598 5597 5598 5598 5598 5599 5599 5600 5599 5599 5599 5599 5600 5600 5600 5599 5599 5599 5600 5601 5601 5600 5600 5601 5601 5602 5602 5602 5601 5600 5599 5597 5596 5594 5593 5592 5591 5590 5589 5587 5587 5586 5585 5585
5598 5597 5596 5596 5594 5594 5594 5594 5594 5594 5593 5594 5594 5594 5593 5593 5593 5594 5594 5594 5594 5593 5594 5594 5595 5595 5595 5594 5594 5593 5592 5591 5590 5588 5587 5585 5585 5584 5582 5581 5580 5579 5578 5578
5593 5592 5591 5591 5591 5589 5588 5588 5588 5588 5588 5588 5588 5587 5588 5588 5588 5588 5588 5588 5587 5586 5587 5588 5588 5588 5588 5587 5587 5586 5585 5584 5583 5582 5580 5579 5578 5577 5576 5574 5573 5572 5571 5571
5588 5588 5587 5586 5586 5585 5583 5583 5583 5583 5583 5583 5582 5581 5581 5582 5582 5582 5582 5581 5581 5581 5582 5581 5581 5581 5581 5580 5580 5579 5578 5577 5576 5575 5573 5572 5571 5570 5568 5567 5565 5564 5564 5563
5583 5582 5582 5581 5580 5580 5579 5579 5578 5579 5579 5579 5578 5577 5577 5577 5577 5576 5576 5575 5576 5576 5575 5574 5574 5573 5573 5572 5572 5571 5570 5569 5568 5567 5566 5565 5564 5562 5561 5560 5558 5557 5556 5555
5578 5577 5576 5575 5574 5574 5573 5573 5573 5573 5572 5573 5573 5573 5572 5571 5571 5570 5570 5569 5569 5569 5568 5567 5566 5566 5565 5564 5564 5563 5562 5561 5560 5560 5559 5558 5557 5556 5555 5553 5552 5551 5549 5548
5572 5571 5570 5569 5569 5568 5568 5567 5567 5567 5567 5567 5567 5567 5567 5567 5566 5565 5564 5564 5563 5562 5561 5560 5559 5558 5557 5557 5556 5555 5555 5554 5554 5553 5552 5551 5550 5549 5548 5547 5545 5544 5544 5542
5567 5566 5565 5564 5563 5562 5562 5562 5562 5562 5562 5563 5562 5563 5562 5562 5560 5559 5559 5559 5558 5557 5556 5554 5553 5552 5551 5550 5549 5548 5548 5547 5547 5546 5545 5544 5543 5543 5541 5540 5539 5538 5537 5536
5562 5561 5560 5559 5558 5557 5557 5557 5557 5558 5558 5558 5558 5558 5558 5557 5556 5555 5554 5553 5552 5551 5550 5548 5547 5546 5545 5544 5543 5542 5541 5541 5540 5540 5538 5537 5536 5535 5535 5534 5533 5532 5530 5529
5557 5556 5555 5555 5554 5553 5553 5553 5553 5553 5553 5554 5554 5553 5552 5551 5550 5549 5548 5547 5546 5545 5544 5543 5542 5540 5539 5537 5536 5535 5534 5534 5533 5533 5532 5531 5530 5529 5528 5527 5527 5526 5524 5523
5552 5552 5551 5550 5550 5550 5550 5550 5550 5549 5549 5549 5549 5549 5548 5547 5545 5544 5543 5541 5540 5539 5538 5536 5535 5534 5533 5532 5531 5529 5528 5528 5527 5526 5525 5524 5523 5522 5521 5520 5520 5519 5518 5517